• Processing (Info)

  • MPEC 2013-P67 : 2013 PJ26

    The following Minor Planet Electronic Circular may be linked-to from your own Web pages, but must not otherwise be redistributed electronically.

    A form allowing access to any MPEC is at the bottom of this page.


    Read MPEC 2013-P66 Read MPEC 2013-P68


    M.P.E.C. 2013-P67                                Issued 2013 Aug. 12, 21:47 UT
    
         The Minor Planet Electronic Circulars contain information on unusual
             minor planets and routine data on comets.  They are published
       on behalf of Commission 20 of the International Astronomical Union by the
              Minor Planet Center, Smithsonian Astrophysical Observatory,
                              Cambridge, MA 02138, U.S.A.
    
                 Prepared using the Tamkin Foundation Computer Network
    
                                  MPC@CFA.HARVARD.EDU
                URL http://www.minorplanetcenter.net/    ISSN 1523-6714
    
                                       2013 PJ26
    
    Observations:
         K13P26J* C2013 08 09.50503 22 05 09.548+35 07 04.19         20.5 gLEP067F51
         K13P26J  C2013 08 09.51705 22 05 13.154+35 07 20.57         20.7 gLEP067F51
         K13P26J  C2013 08 09.53202 22 05 17.694+35 07 40.69         20.2 rLEP067F51
         K13P26J  C2013 08 09.54289 22 05 20.977+35 07 55.06         20.2 rLEP067F51
         K13P26J KC2013 08 10.45915 22 10 17.70 +35 28 09.4          19.5 RoEP067291
         K13P26J KC2013 08 10.46035 22 10 18.10 +35 28 10.9          20.1 RoEP067291
         K13P26J KC2013 08 10.46155 22 10 18.48 +35 28 12.3          19.7 RoEP067291
         K13P26J KC2013 08 10.96553322 13 06.58 +35 38 37.1          19.9 VuEP067I93
         K13P26J KC2013 08 10.97237522 13 08.74 +35 38 46.3          20.0 VuEP067I93
         K13P26J KC2013 08 10.97922022 13 10.81 +35 38 55.4          20.0 VuEP067I93
         K13P26J KC2013 08 11.01380 22 13 21.04 +35 39 35.2          19.9 VtEP067A44
         K13P26J KC2013 08 11.01925 22 13 22.71 +35 39 42.4          19.6 VtEP067A44
         K13P26J KC2013 08 11.02469 22 13 24.40 +35 39 48.6          19.9 VtEP067A44
         K13P26J KC2013 08 11.06327 22 13 36.66 +35 40 36.6                qEP067204
         K13P26J KC2013 08 11.08092 22 13 42.16 +35 40 57.3          20.3 RqEP067204
         K13P26J KC2013 08 11.09236 22 13 45.76 +35 41 10.6                qEP067204
         K13P26J KC2013 08 11.14422122 14 06.26 +35 42 12.8          19.9 VrEP067H21
         K13P26J KC2013 08 11.14898322 14 07.77 +35 42 19.3          20.3 VrEP067H21
         K13P26J KC2013 08 11.15358722 14 09.25 +35 42 25.1          20.3 VrEP067H21
         K13P26J IC2013 08 11.33657822 15 07.10 +35 46 16.7                qEP067V37
         K13P26J KC2013 08 11.34280122 15 09.03 +35 46 23.9          20.2  qEP067V37
         K13P26J KC2013 08 11.34901622 15 10.95 +35 46 31.1          20.3  qEP067V37
         K13P26J KC2013 08 11.84964 22 17 58.93 +35 55 46.2                qEP067104
         K13P26J KC2013 08 11.85536 22 18 00.68 +35 55 53.2          20.4 RqEP067104
         K13P26J KC2013 08 11.86108 22 18 02.53 +35 56 00.3          20.4 RqEP067104
         K13P26J KC2013 08 11.98252 22 18 40.85 +35 58 20.5          20.8 VqEP067595
         K13P26J KC2013 08 12.00624 22 18 48.29 +35 58 47.0          20.5 VqEP067595
         K13P26J  C2013 08 12.04270 22 19 00.33 +35 59 30.8          20.0 RuEP067B74
         K13P26J  C2013 08 12.04512 22 19 01.08 +35 59 33.2          20.0 RuEP067B74
         K13P26J  C2013 08 12.04884 22 19 02.24 +35 59 37.1          20.1 RuEP067B74
    
    Observer details:
    104 San Marcello Pistoiese.  Observer P. Bacci.  Measurers P. Bacci, L. Tesi,
        G. Fagioli.  0.60-m f/4 reflector + CCD.
    204 Schiaparelli Observatory.  Observer L. Buzzi.  0.60-m f/4.64 reflector
        + CCD.
    291 LPL/Spacewatch II.  Observer J. V. Scotti.  1.8-m f/2.7 reflector + CCD.
    595 Farra d'Isonzo.  Observer E. Pettarin.  0.61-m f/4.0 reflector + CCD.
    A44 Altschwendt.  Observer W. Ries.  0.45-m f/4.5 reflector + CCD.
    B74 Santa Maria de Montmagastrell.  Observer J. M. Bosch.  0.40-m f/10
        Schmidt-Cassegrain + CCD.
    F51 Pan-STARRS 1, Haleakala.  Observers N. Primak, A. Schultz. T. Goggia,
        M. Willman.  Measurer PS1 Science Consortium.  1.8-m Ritchey-Chretien
        + CCD.
    H21 Astronomical Research Observatory, Westfield.  Observer R. Holmes.
        Measurers S. Foglia, L. Buzzi, H. Devore, A. Kostin, T. Linder,
        T. Lister. T. Vorobjov.  0.61-m f/4.0 astrograph + CCD.
    I93 St Pardon de Conques.  Observer F. Losse.  0.40-m f/3.7 reflector + CCD.
    V37 McDonald Observatory-LCOGT ELP.  Observer T. Lister.  1.0-m f/8
        Ritchey-Chretien + CCD.
    
    Orbital elements:
    2013 PJ26                                                Earth MOID = 0.1693 AU
    Epoch 2013 Apr. 18.0 TT = JDT 2456400.5                 MPC
    M 334.36514              (2000.0)            P               Q
    n   0.21075802     Peri.  117.97554     +0.85274862     +0.51853890
    a   2.7964903      Node   210.91100     -0.51179860     +0.80552524
    e   0.5933473      Incl.    7.01597     -0.10431676     +0.28678652
    P   4.68           H   21.8           G   0.15           U   7
    Residuals in seconds of arc
    130809 F51  0.0   0.1-    130811 A44  0.4+  0.3-    130811 V37  0.0   0.0
    130809 F51  0.2-  0.0     130811 A44  0.0   0.4+    130811 V37  0.0   0.0
    130809 F51  0.1+  0.0     130811 A44  0.1-  0.0     130811 104  0.9+  0.0
    130809 F51  0.0   0.1-    130811 204  0.1+  0.1-    130811 104  0.2-  0.0
    130810 291  0.2-  0.2+    130811 204  0.2-  0.1-    130811 104  0.0   0.2+
    130810 291  0.1+  0.3+    130811 204  0.0   0.0     130811 595  0.2+  0.6-
    130810 291  0.2+  0.3+    130811 H21  0.2-  0.2-    130812 595  0.1-  0.3-
    130810 I93  0.1-  0.4-    130811 H21  0.2-  0.1+    130812 B74  0.0   0.2+
    130810 I93  0.1+  0.0     130811 H21  0.1+  0.1-    130812 B74  0.1-  0.0
    130810 I93  0.7-  0.5+    130811 V37  0.1-  0.1+    130812 B74  0.2-  0.2-
    
    Ephemeris:
    2013 PJ26                a,e,i = 2.80, 0.59, 7                   q = 1.1372
    Date    TT    R. A. (2000) Decl.     Delta      r     Elong.  Phase     V
    2013 07 13    20 15 00.6 +17 10 09   0.2518  1.2187   139.4    32.9    20.6
    ...
    2013 07 28    21 05 07.7 +28 11 59   0.2090  1.1656   132.0    40.4    20.3
    ...
    2013 08 05    21 41 45.1 +33 03 49   0.1962  1.1480   128.9    43.4    20.2
    ...
    2013 08 11    22 13 16.4 +35 39 28   0.1909  1.1402   127.6    44.7    20.2
    2013 08 12    22 18 46.0 +35 58 47   0.1904  1.1394   127.5    44.9    20.2
    2013 08 13    22 24 18.4 +36 16 05   0.1899  1.1387   127.4    45.0    20.2
    ...
    2013 08 19    22 57 55.2 +37 15 37   0.1890  1.1373   127.6    44.8    20.2
    ...
    2013 08 27    23 40 34.8 +36 38 37   0.1926  1.1431   129.7    42.8    20.2
    ...
    2013 09 11    00 40 24.2 +30 53 26   0.2131  1.1764   139.2    34.0    20.2
    
    A. U. Tomatic                (C) Copyright 2013 MPC           M.P.E.C. 2013-P67
    

    Read MPEC 2013-P66 Read MPEC 2013-P68


    MPEC number:

    Enter an MPEC number in one of the following forms:

    • 1997-B01 (the full form)
    • J97B01 (the packed version of the full form)
    • B01 (the abbreviated form)